www.pogodaiklimat.ru

Погода и климат >> Архив погоды >> Индонезия >> Аэропорт Ханга Надима


ПОГОДА в Аэропорту Ханга Надима

  • Прогноз погоды в Аэропорту Ханга Надима
  • Монитор погоды в Аэропорту Ханга Надима

АРХИВ ПОГОДЫ в Аэропорту Ханга Надима

Время (UTC), дата Ветер
(напр.,м/с)
 
Видим.   Явления Облачность Т
(С)
Тd
(С)
f
(%)
Тe
(С)
Тes
(С)
Комфортность P
(гПа)
Po
(гПа)
Тmin
(С)
Tmax
(С)
R
(мм)
R24
(мм)
S
(см)
18 18.08 Ю 2 10 км 10/1 420 м
[Cu hum Cs]
+26.7 +23.8 84 +37 +37 очень
душно
1013.7 1009.2
21 18.08 штиль 0 10 км 10/1 420 м
[Cu hum Cs]
+25.0 +23.3 90 +33 +33 очень
душно
1013.2 1008.7
00 19.08 штиль 0 10 км 10/1 420 м
[Sc Ac trans Cs]
+27.3 +23.7 81 +37 +38 очень
душно
1014.0 1009.5 +25.0
03 19.08 ЮВ 3 10 км 9/4 420 м
[Cu hum Ac trans Cs]
+31.0 +23.2 63 +41 +46 опасность
перегрева
1014.5 1010.0
06 19.08 ЮВ 4 10 км 10/3 420 м
[Cu hum Ac trans Cs]
+32.8 +21.0 50 +40 +45 очень
душно
1012.3 1007.8
09 19.08 ЮВ 3 10 км 10/3 420 м
[Cu med, cong Ac trans Cs]
+31.7 +21.6 55 +40 +42 очень
душно
1010.8 1006.3
12 19.08 ЮВ 1 10 км 9/1 420 м
[Cu hum Ac trans Ci fib]
+28.7 +23.1 72 +39 +39 очень
душно
1011.9 1007.4 +33.4
15 19.08 ЮВ 2 10 км 8/1 420 м
[Cu hum Ac trans Cs]
+28.1 +24.7 82 +40 +40 очень
душно
1013.1 1008.6
18 19.08 ЮВ 2 10 км 8/1 420 м
[Cu hum Cs]
+27.8 +24.4 82 +39 +39 очень
душно
1012.0 1007.5
21 19.08 ЮВ 3 10 км 8/1 420 м
[Cu hum Cs]
+27.5 +24.1 82 +38 +38 очень
душно
1011.5 1007.0
00 20.08 ЮВ 2 10 км 8/1 420 м
[Sc Ac trans Ci fib]
+28.0 +24.0 79 +39 +40 очень
душно
1012.4 1007.9 +25.0
03 20.08 ЮВ 4 10 км 9/4 420 м
[Cu med, cong Ac trans Cs]
+30.8 +24.0 67 +42 +46 опасность
перегрева
1013.1 1008.6
06 20.08 ЮВ 5 10 км 9/1 420 м
[Cu hum Ac trans Cs]
+32.6 +23.3 58 +43 +49 опасность
перегрева
1011.2 1006.7
09 20.08 ЮВ 4 10 км 5/1 420 м
[Sc Cs]
+31.0 +22.4 60 +40 +44 очень
душно
1009.8 1005.3
12 20.08 ЮВ 3 10 км 6/3 420 м
[Sc Cs]
+28.6 +23.3 73 +39 +39 очень
душно
1010.8 1006.3 +32.9
15 20.08 ЮВ 3 10 км 8/3 420 м
[Sc Cs]
+28.2 +23.3 75 +38 +38 очень
душно
1011.7 1007.2
18 20.08 ЮВ 3 10 км 8/3 420 м
[Sc Cs]
+27.8 +23.8 79 +38 +38 очень
душно
1011.0 1006.5
21 20.08 ЮВ 3 10 км 8/3 420 м
[Sc Cs]
+27.6 +23.6 79 +38 +38 очень
душно
1011.0 1006.5
00 21.08 ЮВ 2 10 км 6/3 420 м
[Sc Cs]
+28.2 +24.1 78 +39 +40 очень
душно
1012.1 1007.6 +27.2
03 21.08 ЮВ 3 10 км 9/4 420 м
[Sc As trans Ci sp]
+30.6 +24.2 69 +43 +48 опасность
перегрева
1013.0 1008.5
06 21.08 ЮВ 2 10 км 9/4 420 м
[Sc As trans Ci fib]
+32.5 +23.0 57 +43 +50 опасность
перегрева
1011.3 1006.8
09 21.08 ЮВ 3 10 км 6/1 420 м
[Sc Cs]
+31.4 +24.0 65 +43 +47 опасность
перегрева
1009.8 1005.3
12 21.08 Ю 3 10 км 9/1 420 м
[Sc Cs]
+28.6 +24.5 79 +41 +41 опасность
перегрева
1011.3 1006.8 +33.0
15 21.08 ЮВ 1 10 км 9/1 420 м
[Sc Cs]
+28.2 +24.5 80 +40 +40 очень
душно
1013.3 1008.8
18 21.08 ЮВ 3 10 км 9/1 420 м
[Sc Cs]
+27.8 +24.4 82 +39 +39 очень
душно
1012.7 1008.2
21 21.08 В 1 10 км 9/1 420 м
[Sc Cs]
+26.8 +24.4 87 +38 +38 очень
душно
1012.5 1008.0
00 22.08 ЮВ 1 10 км 6/1 420 м
[Sc Cs]
+27.4 +25.1 87 +39 +41 очень
душно
1013.6 1009.1 +26.0
03 22.08 ЮВ 4 10 км 9/5 420 м
[Cu hum Cs]
+31.2 +24.6 68 +44 +48 опасность
перегрева
1014.2 1009.7
06 22.08 ЮВ 4 10 км 9/4 420 м
[Cu med, cong Cs]
+31.4 +24.5 67 +44 +51 опасность
перегрева
1012.4 1007.9
09 22.08 Ю 2 10 км 9/4 420 м
[Cu med, cong As op Cs]
+29.0 +20.6 61 +36 +38 очень
душно
1010.5 1006.0
12 22.08 ЮВ 2 10 км 9/5 420 м
[Sc Ac trans Cs]
+28.4 +24.7 80 +40 +40 очень
душно
1012.1 1007.6 +32.9
15 22.08 ЮВ 2 10 км 8/3 420 м
[Sc Ac trans Cs]
+27.9 +23.9 79 +39 +39 очень
душно
1013.9 1009.4
18 22.08 ЮВ 2 10 км 8/3 420 м
[Sc Cs]
+27.7 +23.7 79 +38 +38 очень
душно
1012.8 1008.3
21 22.08 ЮВ 2 10 км 8/3 420 м
[Sc Ac trans Cs]
+27.7 +24.0 80 +38 +38 очень
душно
1012.5 1008.0
00 23.08 ЮВ 2 9000 м в посл. час дождь 9/6 420 м
[Sc Cs]
+26.4 +25.0 92 +38 +38 очень
душно
1014.1 1009.6 +25.4 0.0
03 23.08 Ю 3 9000 м 9/3 420 м
[Sc Cs]
+30.5 +24.4 70 +43 +50 опасность
перегрева
1014.3 1009.8
06 23.08 Ю 4 10 км 9/1 420 м
[Cu hum Cs]
+31.8 +21.9 56 +40 +52 опасность
солнечного
удара
1011.9 1007.4
09 23.08 ЮВ 5 10 км 9/1 420 м
[Cu hum Ci fib]
+30.8 +22.7 62 +40 +43 очень
душно
1010.7 1006.2
12 23.08 ЮВ 3 10 км 9/1 420 м
[Cu hum Ci fib]
+28.2 +23.6 76 +38 +38 очень
душно
1012.2 1007.7 +32.8
15 23.08 ЮВ 1 10 км 9/1 420 м
[Cu hum Ci fib]
+27.6 +24.0 81 +38 +38 очень
душно
1014.1 1009.6
18 23.08 ЮВ 2 10 км 9/1 420 м
[Sc Cs]
+26.8 +24.1 85 +37 +37 очень
душно
1013.0 1008.5
21 23.08 штиль 0 10 км 9/1 420 м
[Sc Cs]
+26.1 +24.2 89 +36 +36 очень
душно
1012.1 1007.6
00 24.08 ЮВ 2 10 км 9/5 420 м
[Cu hum Cs]
+27.6 +23.9 80 +38 +39 очень
душно
1013.3 1008.8 +26.0
03 24.08 ЮВ 4 10 км 9/6 420 м
[Cu hum Cs]
+31.3 +23.7 64 +42 +46 опасность
перегрева
1013.7 1009.2
06 24.08 ЮВ 4 10 км 9/5 420 м
[Cu hum Cs]
+32.4 +20.2 49 +39 +45 очень
душно
1011.8 1007.3
09 24.08 ЮВ 3 10 км 6/3 420 м
[Cu med, cong Cs]
+31.5 +21.7 56 +40 +43 очень
душно
1010.7 1006.2
12 24.08 ЮВ 2 10 км 6/1 420 м
[Cu hum Cs]
+28.9 +22.8 70 +38 +38 очень
душно
1012.0 1007.5 +33.2
15 24.08 ЮВ 2 10 км 6/1 420 м
[Cu hum Cs]
+27.8 +23.8 79 +38 +38 очень
душно
1013.1 1008.6
18 24.08 штиль 0 10 км 6/1 420 м
[Cu hum Cs]
+27.6 +23.6 79 +38 +38 очень
душно
1012.4 1007.9
21 24.08 штиль 0 10 км 8/1 420 м
[Cu hum Cs]
+27.3 +23.2 78 +37 +37 очень
душно
1011.7 1007.2
00 25.08 штиль 0 10 км 8/3 420 м
[Cu hum Ac trans Cs]
+27.2 +24.6 86 +39 +39 очень
душно
1013.1 1008.6 +26.2
03 25.08 ЮВ 3 10 км 9/4 420 м
[Cu hum Ac trans Cs]
+31.1 +24.1 66 +43 +48 опасность
перегрева
1014.3 1009.8
06 25.08 ЮВ 4 10 км 10/1 420 м
[Cu hum Ac trans Cs]
+31.7 +23.4 62 +43 +49 опасность
перегрева
1012.4 1007.9
09 25.08 ЮЗ 2 8000 м в посл. час дождь 9/4 420 м
[Cu med, cong As trans Cs]
+27.1 +24.7 87 +39 +41 очень
душно
1010.4 1005.9 9
12 25.08 штиль 0 8000 м в посл. час дождь 9/3 420 м
[Cu hum As trans Cs]
+27.7 +25.3 87 +40 +40 очень
душно
1011.9 1007.4 +33.4 9
15 25.08 штиль 0 9000 м 9/5 420 м
[Cu hum As trans Cs]
+27.1 +25.0 88 +39 +39 очень
душно
1013.5 1009.0

 

Местоположение метеостанции Аэропорт Ханга Надима (Индонезия): широта 1.12 долгота 104.11 высота над уровнем моря 24 м.

В архиве по умолчанию представлена погода в Аэропорту Ханга Надима за последнюю неделю. Архивные данные за месяц целиком и за предыдущие месяцы, начиная с января 2011 года, Вы можете получить, выбрав интересующий диапазон дат из раскрывающегося списка и нажав кнопку "Ввод!".


*Определитесь, кто Вы:
робот инопланетянин человек

Внимание! Время в таблицах - всемирное. Для получения местного времени необходимо прибавить поправку, которая равна 7 ч.

Смотрите также архив погоды в соседних городах и на ближайших метеорологических станциях:

Погода в Сингапуре (Сингапур) (31 км)
Погода в Танджунгпинанге (Индонезия) (52 км)
Погода в Аэропорту Сеная (Малайзия) (75 км)
Погода в Аэропорту Дабо (Индонезия) (185 км)
Погода в Малакке (Малайзия) (243 км)
Погода в Аэропорту Япура (Индонезия) (257 км)
Погода в Пеканбару (Индонезия) (305 км)
Погода в Джамби (Индонезия) (310 км)
Погода в Куантане (Малайзия) (312 км)
Погода в Куала-Лумпур аэропорту (Малайзия) (322 км)

Пояснения к столбцам:

Ветер - указаны скорость ветра в м/с - средняя за 10 мин, порывы в срок и между сроками (в фигурных скобках) и направление, откуда дует ветер: С - северный, СВ - северо-восточный, В - восточный, ЮВ - юго-восточный, Ю - южный, ЮЗ - юго-западный, З - западный, СЗ - северо-западный.
Видимость - горизонтальная дальность видимости в метрах или километрах. При видимости от 1 до 10 км при отсутствии осадков обычно наблюдается дымка, при ухудшении видимости до 1 км и менее - туман. В сухую погоду видимость может ухудшаться дымом, пылью или мглою.
Явления - указаны атмосферные явления, наблюдавшиеся в срок или в последний час перед сроком; фигурными скобками обозначены явления, наблюдавшиеся между сроками (за 1-3 часа до срока); квадратными скобками обозначены град или гололедные отложения с указанием их диаметра в мм.
Облачность - указаны через наклонную черту общая и нижняя облачность в баллах и высота нижней границы облаков в метрах; квадратными скобками обозначены формы облаков: Ci - перистые, Cs - перисто-слоистые, Cc - перисто-кучевые, Ac - высококучевые, As - высокослоистые, Sc - слоисто-кучевые, Ns - слоисто-дождевые, Cu - кучевые, Cb - кучево-дождевые. Подробнее классификацию облаков см. в Атласе облаков (PDF).
T - Температура воздуха - температура, измеренная на высоте 2 м над землей.
Td - Температура точки росы - температура, при понижении до которой содержащийся в воздухе водяной пар достигнет насыщения.
f - Относительная влажность воздуха - влажноcть воздуха, измеренная на высоте 2 м над землей.
Te - Эффективная температура - температура, которую ощущает одетый по сезону человек в тени. Характеристика душности погоды. При расчете учитывается влияние влажности воздуха и скорости ветра на теплоощущения человека.
Tes - Эффективная температура на солнце - температура, которую ощущает человек, с поправкой на солнечный нагрев. Характеристика знойности погоды. Зависит от высоты солнца над горизонтом, облачности и скорости ветра. Ночью, в пасмурную погоду, а также при ветре 12 м/с и более поправка равна нулю.
P - Атмосферное давление - приведенное к уровню моря атмосферное давление.
Po - Атмосферное давление - измеренное на уровне метеостанции атмосферное давление.
Tmin - Минимальная температура - минимум температуры воздуха на высоте 2 м над землей.
Tmax - Максимальная температура - максимум температуры воздуха на высоте 2 м над землей.
R - Количество осадков - Количество выпавших осадков за период времени, мм. При наведении курсора мыши на число - период времени, за который выпало указанное количество осадков.
R24 - Количество осадков - Количество выпавших осадков за 24 часа, мм.
S - Снежный покров - Высота снежного покрова, см. При наведении курсора мыши на число - состояние снежного покрова и степень покрытия местности в баллах.